Theta_e
348 355 360 358 358 360 359 361 362 363 362 360 359 358 358 358 356 354 352 349 350 350 350 350 349 349 347 347 346 345 345 345 347 347 346 344 341 339 338 337 336 332 336
352 356 361 360 358 360 359 360 362 363 362 360 359 358 357 357 355 354 353 352 351 350 351 351 350 350 349 348 348 346 345 344 343 344 343 342 340 339 338 338 337 334 336
354 355 358 360 359 360 360 359 362 362 362 361 359 359 357 357 356 355 355 355 350 350 351 351 350 350 349 348 348 347 347 344 341 341 340 336 337 339 338 337 336 336 335
353 353 355 361 360 359 360 360 360 361 361 361 359 358 357 357 356 356 355 355 350 349 349 348 348 347 346 346 346 346 343 342 343 340 335 335 336 340 338 337 337 336 335
352 352 355 361 360 359 359 359 359 360 361 360 359 358 357 357 357 358 357 356 353 351 349 348 347 345 344 344 343 342 343 342 344 336 334 335 337 338 338 337 336 336 334
351 350 358 361 361 360 359 359 358 358 359 360 358 358 357 357 357 358 357 357 355 353 351 350 348 346 345 344 345 347 346 346 339 332 334 338 335 338 337 337 337 336 335
351 351 356 360 361 359 358 359 358 358 358 359 359 358 357 358 357 358 358 356 355 355 354 353 352 349 348 348 347 349 348 339 330 331 335 334 335 340 338 337 336 337 335
350 353 354 359 360 359 359 359 359 358 358 358 359 359 359 359 358 358 358 357 356 355 354 353 352 352 351 351 350 350 349 339 332 331 333 334 338 339 338 337 336 336 335
353 352 352 352 356 359 360 359 359 358 358 357 358 359 359 359 359 359 358 359 359 358 357 355 354 354 354 353 352 351 350 341 329 330 331 333 340 340 339 337 336 336 334
352 350 350 351 351 352 355 359 359 358 358 357 356 357 358 359 359 358 355 356 357 358 358 358 357 356 355 355 354 353 350 350 335 331 331 333 341 341 339 338 336 335 334
348 350 350 350 348 349 351 355 358 357 356 356 354 356 355 353 355 356 356 356 359 358 358 358 358 357 356 355 354 354 352 348 343 339 331 335 343 343 341 339 337 336 335
343 347 349 350 349 349 352 351 352 351 351 351 350 349 348 348 349 353 355 356 357 359 359 358 358 357 356 353 350 350 347 348 346 345 339 339 343 345 344 341 339 337 335
343 345 347 348 350 348 347 348 349 347 348 347 347 345 344 345 346 350 348 350 353 354 354 354 354 354 354 352 350 349 348 347 348 346 345 341 344 346 346 343 340 338 336
340 343 346 348 349 348 345 346 347 346 346 345 344 343 341 340 340 342 345 345 345 348 348 348 347 348 349 350 351 350 349 347 348 344 342 346 346 347 348 346 343 341 338
337 341 346 348 347 347 344 346 344 345 346 345 343 342 341 338 337 338 340 342 343 345 346 346 344 342 342 343 343 345 345 347 347 346 342 346 350 349 349 348 346 344 342
337 337 342 346 347 346 344 344 344 344 344 342 341 341 341 338 336 335 336 338 341 344 344 345 344 342 339 339 340 342 343 345 347 344 345 344 346 350 350 350 349 347 345
337 336 337 340 344 344 343 343 341 341 341 339 339 339 340 338 335 334 334 337 339 341 341 341 340 339 338 339 339 340 341 343 343 346 346 344 345 351 350 352 350 349 347
336 334 334 339 340 340 340 339 340 338 337 338 337 337 339 339 338 334 334 336 340 341 340 339 338 337 337 336 336 337 338 342 342 341 346 345 344 349 350 351 351 350 349
334 332 332 333 334 335 335 337 336 334 335 336 336 336 338 339 340 339 338 340 342 342 341 338 339 337 336 336 338 339 340 341 342 344 343 345 344 345 347 347 349 349 348
331 329 331 333 331 332 332 334 335 333 333 334 336 336 339 339 341 340 340 341 343 343 341 340 338 337 336 338 337 338 340 341 341 341 341 344 344 344 345 344 345 348 348
331 331 332 333 335 331 332 334 335 333 336 336 336 339 340 341 342 341 341 341 342 339 340 340 338 337 336 338 336 334 335 338 340 340 340 339 339 344 344 345 343 344 346
332 332 332 334 336 335 334 336 337 338 340 341 342 343 344 344 343 342 341 339 341 335 336 335 337 336 336 336 333 331 328 331 335 336 337 337 336 338 340 343 343 343 343
327 328 330 331 333 334 339 343 344 344 342 339 340 341 340 343 346 345 343 341 339 332 330 331 332 333 331 336 336 333 325 325 327 333 333 337 337 334 335 343 343 342 343
325 326 328 328 329 332 335 335 335 333 333 335 336 337 338 340 342 347 343 337 334 332 330 330 332 331 334 333 335 337 336 334 329 326 330 333 334 333 335 341 341 342 341
324 324 325 326 326 328 330 332 331 330 332 332 331 331 332 334 336 339 337 335 334 332 333 334 332 330 332 334 337 334 333 332 329 329 326 328 333 333 335 336 339 338 338
318 318 320 321 322 324 325 326 326 327 328 327 327 328 329 330 331 333 336 334 333 333 333 332 330 329 329 334 337 337 335 332 330 328 325 325 327 330 333 334 333 334 334
Wind_Speed
5 11 16 15 15 15 16 16 16 16 16 16 16 17 16 15 15 16 16 15 15 16 17 18 18 18 18 18 16 15 14 14 13 15 15 13 13 12 12 12 12 9 12
12 11 16 16 16 15 15 16 15 14 15 16 16 16 16 15 16 16 15 15 15 16 16 16 16 16 16 15 15 14 14 13 12 11 11 12 12 12 12 12 12 10 11
13 10 12 14 15 16 15 14 14 14 13 15 15 15 15 14 15 14 13 13 15 15 14 14 14 14 13 12 12 12 14 11 11 11 12 6 7 11 11 11 12 11 10
14 10 10 15 13 16 16 14 14 15 14 14 14 15 15 14 14 13 13 13 15 14 13 12 12 11 10 9 8 7 3 4 9 10 4 4 7 11 10 11 10 10 11
12 10 11 15 15 16 16 15 14 14 14 13 14 14 15 14 12 11 11 11 12 13 13 11 10 9 8 7 6 4 2 1 7 7 4 3 3 8 10 11 10 9 9
10 7 13 15 14 15 16 14 12 13 13 13 12 12 13 12 11 10 10 9 10 11 11 10 8 7 6 5 5 4 6 10 11 6 4 4 3 8 8 8 10 9 9
11 6 10 14 14 14 16 15 14 12 11 11 11 12 11 11 10 8 8 8 8 8 8 8 7 5 4 4 5 5 7 11 7 5 4 3 3 7 7 7 8 9 8
14 10 9 14 13 13 14 13 12 12 11 10 10 10 10 9 9 9 7 6 6 5 5 5 4 3 3 2 3 5 7 9 6 5 4 3 4 7 7 7 7 7 7
9 9 8 11 14 15 13 13 12 10 9 9 9 9 9 9 8 8 9 9 8 6 5 4 3 1 0 1 1 3 5 7 5 3 5 3 8 7 7 7 6 6 6
9 8 8 7 7 7 6 12 11 11 11 10 10 10 9 9 8 7 6 5 6 8 6 5 3 3 3 3 2 1 1 1 3 4 3 4 10 8 8 8 7 6 6
8 10 7 9 7 9 7 9 11 13 11 10 9 10 7 4 4 6 5 6 5 4 4 4 5 4 5 6 5 4 4 1 3 3 4 10 12 11 9 9 9 8 7
14 13 7 8 8 8 7 8 7 6 5 4 4 5 4 4 4 5 6 7 7 6 5 4 5 5 6 3 3 5 2 3 3 3 3 12 15 13 13 12 10 9 8
12 10 12 13 11 11 9 6 4 3 3 3 5 5 4 3 3 2 2 2 1 5 2 3 3 3 5 4 4 3 3 4 3 2 3 10 13 13 13 12 11 10 9
9 13 12 10 7 6 2 4 5 5 4 4 5 6 4 3 3 3 3 3 3 2 3 3 3 4 6 6 6 6 6 4 3 3 4 11 14 15 14 13 13 12 12
10 11 10 14 11 10 4 2 3 5 6 6 5 5 4 4 4 3 3 3 2 2 3 4 5 5 6 6 5 6 7 6 5 3 3 11 13 16 15 14 14 14 13
12 11 11 13 11 10 10 7 6 5 5 4 5 6 7 5 4 4 3 3 3 4 4 5 5 4 5 5 6 5 7 6 6 5 3 5 10 14 15 15 16 15 13
15 7 12 11 10 11 12 9 6 6 5 5 6 6 7 6 5 4 4 4 5 4 5 2 4 3 5 3 7 5 5 7 7 6 5 4 4 13 15 16 14 14 13
6 8 7 10 12 11 10 8 7 6 5 6 6 6 8 8 7 6 5 6 2 2 2 3 2 3 4 3 4 5 4 4 5 5 4 4 4 5 12 15 16 14 15
7 7 9 8 10 12 10 8 7 6 6 5 4 5 7 8 7 6 5 3 3 3 2 1 1 2 2 3 3 4 4 4 4 4 5 6 6 7 5 11 15 15 13
12 9 9 6 7 5 3 3 1 3 3 4 5 5 7 6 8 7 5 5 5 1 2 2 3 3 4 3 3 4 3 4 4 4 5 4 5 7 6 7 5 7 12
8 7 3 5 5 1 1 2 2 3 1 2 3 4 5 5 8 8 3 1 4 4 3 4 2 2 3 3 1 3 3 5 5 3 3 4 6 5 6 6 4 4 5
10 9 9 7 4 1 1 0 1 1 2 2 3 2 0 4 5 5 5 5 8 7 6 5 6 5 5 7 4 1 2 3 2 1 1 4 6 3 4 6 6 6 4
14 14 12 12 12 10 6 2 2 2 2 3 3 3 3 4 3 7 8 8 10 9 8 8 8 8 5 2 5 4 1 3 1 0 0 2 3 2 3 3 4 4 4
12 13 14 20 16 15 13 8 9 5 4 3 5 4 4 2 2 1 4 6 9 8 10 11 7 5 4 4 3 5 2 3 3 2 1 1 1 2 1 1 3 3 4
14 14 14 16 19 19 16 8 6 10 8 4 7 5 5 5 4 3 6 10 7 7 5 4 7 5 3 3 3 2 2 1 1 2 3 2 1 2 3 2 4 4 4
11 12 14 18 18 20 18 18 22 13 9 6 5 5 5 4 6 8 7 5 3 4 5 6 6 6 3 1 2 3 3 3 4 3 3 2 1 1 2 2 4 4 4
Wind_Direction
159 151 153 154 146 135 128 123 119 117 116 117 118 119 117 114 110 106 102 100 99 103 103 104 103 102 103 103 103 101 97 91 93 85 83 86 85 85 86 85 82 79 86
140 149 154 153 147 139 131 127 121 121 121 122 122 122 121 117 112 109 106 104 105 108 108 107 106 105 105 105 105 99 92 88 94 92 88 93 93 96 99 99 91 88 92
134 143 147 152 148 142 136 130 125 122 121 123 125 124 122 118 116 112 109 106 107 109 110 110 109 107 108 110 111 110 106 92 95 102 102 94 101 102 98 96 98 97 95
136 142 145 151 151 146 143 138 132 130 129 130 131 131 130 126 124 121 116 113 113 114 113 111 110 110 111 111 115 126 142 100 115 106 94 95 109 110 103 102 106 101 98
134 141 153 155 154 152 150 146 141 138 139 141 142 139 135 132 131 126 121 118 117 118 119 118 114 115 113 112 113 114 118 151 137 115 103 90 81 111 116 119 109 105 109
123 128 155 156 157 155 154 152 149 146 148 147 146 139 138 137 138 135 131 127 123 122 123 123 124 123 113 101 86 70 84 89 108 120 120 128 108 116 118 124 122 111 110
136 135 152 155 161 161 162 159 159 155 154 151 150 148 146 145 144 142 143 141 135 133 129 129 125 117 107 96 68 55 118 120 121 133 139 138 155 131 131 126 125 121 119
147 150 153 160 164 164 167 166 162 162 158 156 156 155 153 156 155 157 160 157 155 152 147 143 133 131 107 70 64 64 125 135 135 146 153 153 178 152 140 137 141 132 126
144 150 161 162 169 173 171 168 164 163 157 160 160 158 160 164 167 187 186 177 183 185 191 188 187 190 268 50 50 54 105 158 153 163 167 178 184 169 157 153 154 140 132
156 163 172 167 159 148 158 171 170 169 169 171 166 166 169 173 176 194 201 214 219 193 202 216 227 265 293 301 303 288 232 133 178 194 198 193 196 183 177 171 165 156 153
186 192 170 161 159 153 161 178 179 181 181 180 178 175 169 167 189 200 210 223 259 267 270 258 224 258 283 297 309 295 277 227 212 206 201 202 203 197 186 192 178 172 172
194 190 178 185 174 166 178 177 171 177 164 168 168 171 172 177 182 205 218 230 243 258 266 268 259 262 280 283 285 296 289 266 257 239 219 217 207 203 197 196 190 183 185
193 177 188 190 183 181 187 171 168 164 156 157 174 184 187 177 196 207 217 235 238 261 258 274 275 265 264 268 275 281 275 271 256 253 249 211 210 214 207 201 200 199 194
191 195 191 191 181 196 194 184 164 161 166 180 188 186 175 184 195 209 210 215 219 230 248 254 257 263 255 259 269 274 278 262 268 237 240 224 205 212 215 207 206 206 205
211 204 190 190 190 182 172 163 165 182 188 188 178 182 179 196 201 194 217 216 222 222 231 250 247 240 249 259 258 268 277 273 250 249 226 239 214 206 215 212 216 214 211
215 205 193 190 188 180 176 177 189 194 201 168 180 191 192 196 199 200 210 216 225 221 224 231 239 265 260 255 270 262 268 279 269 240 234 242 237 206 214 212 218 222 215
216 185 198 186 179 193 187 185 183 188 187 184 194 185 192 190 208 191 202 215 232 211 242 264 277 258 281 280 270 274 278 274 296 273 224 222 238 204 210 220 225 221 224
213 188 178 194 196 191 194 188 191 192 186 198 194 185 189 198 195 194 211 221 217 222 245 213 252 283 278 284 291 280 277 268 275 278 270 222 206 206 217 222 229 223 222
190 176 185 192 198 196 192 188 186 184 198 196 186 183 189 198 199 204 210 218 222 209 175 268 267 246 269 281 270 305 297 279 266 281 286 246 225 211 212 230 235 236 226
17 12 356 347 337 287 191 159 175 172 204 177 197 193 192 198 200 203 200 197 189 164 111 167 205 211 235 238 267 254 248 250 247 244 248 255 230 229 222 230 242 255 231
34 34 5 339 324 310 0 26 347 245 284 291 248 219 201 176 202 210 224 212 99 139 127 153 148 220 260 206 232 244 234 228 249 254 252 244 255 242 226 237 229 238 237
43 12 11 2 299 215 255 304 263 191 190 153 146 151 177 211 223 208 188 160 158 136 165 175 166 196 207 185 190 137 270 322 292 224 274 247 248 252 241 233 226 233 238
45 30 19 22 19 21 3 46 64 69 50 40 6 51 27 56 230 199 169 167 163 162 173 192 201 190 196 93 208 137 109 234 339 88 335 276 218 216 252 218 208 212 203
54 54 43 37 35 29 16 50 52 15 15 40 44 358 334 14 36 6 84 157 170 184 183 205 199 223 137 190 123 230 322 131 195 306 254 350 72 103 71 147 141 134 139
56 66 77 66 46 42 27 29 54 64 19 11 55 335 350 355 11 309 98 191 184 216 257 323 322 271 189 137 153 160 167 131 204 193 279 254 85 75 95 140 126 110 110
52 50 45 59 62 57 41 22 32 16 35 20 7 357 3 14 7 23 40 32 331 335 336 339 331 330 310 259 205 184 182 167 194 180 213 214 296 4 3 103 118 125 118